Roseboom, New York
Current Conditions -  °F | °C
As of 5:55 AM on Wednesday 22 Oct 2014 (Local Time) from KNY0 Reporting Station
Overcast Overcast  
Wind Chill: 43°   Ceiling: 1100
Heat Index: 47°   Visibility: 10mi
Dew Point: 44°   Wind: 9mph
Humidity: 87%   Direction: 40°NE
Pressure: 30.05"   Gusts: 16mph
Location:  42.74°N, 74.78°W
Report Text: KNY0 220955Z AUTO 04008G14KT 10SM OVC011 09/06 A3005 RMK AO2 T00850064
Loading
Personal Weather Stations






























Interactive Weather Map
Tropical Storm Tracking
New forecast layout! Learn more

10-Day Weather Forecast

Advertisements
Track Severe Weather on mobile